• In Austria
  • List of Countries
  • For 7 days
  • Water Temperature
  • Satellite Maps
  • Weather Map
  • News
  • Weather Widgets
  • user-avatar
    Login

    Hourly Weather Ashtarak

    Today, 18 September, Tuesday

    Time Temperature Precipitation Wind Pressure Humidity
    00:00 +16°C° 0.3 mm 2 mps 659 mmHg 77%
    01:00 +15°C° 0.1 mm 2 mps 659 mmHg 78%
    02:00 +15°C° 0.1 mm 2 mps 659 mmHg 79%
    03:00 +15°C° 0 mm 2 mps 659 mmHg 80%
    04:00 +14°C° 0.2 mm 2 mps 659 mmHg 81%
    05:00 +14°C° 0.2 mm 2 mps 659 mmHg 82%
    06:00 +14°C° 0.2 mm 2 mps 659 mmHg 82%
    07:00 +16°C° 0 mm 2 mps 660 mmHg 74%
    08:00 +19°C° 0 mm 1 mps 660 mmHg 65%
    09:00 +20°C° 0 mm 2 mps 661 mmHg 54%
    10:00 +21°C° 0.2 mm 2 mps 661 mmHg 51%
    11:00 +23°C° 0.2 mm 2 mps 661 mmHg 47%
    12:00 +24°C° 0.2 mm 2 mps 661 mmHg 43%
    13:00 +24°C° 0.3 mm 2 mps 660 mmHg 43%
    14:00 +24°C° 0.3 mm 2 mps 660 mmHg 42%
    15:00 +24°C° 0 mm 2 mps 660 mmHg 42%
    16:00 +23°C° 0.2 mm 2 mps 660 mmHg 47%
    17:00 +21°C° 0.2 mm 2 mps 660 mmHg 52%
    18:00 +20°C° 0.2 mm 2 mps 660 mmHg 57%
    19:00 +19°C° 0.2 mm 2 mps 660 mmHg 61%
    20:00 +18°C° 0.2 mm 2 mps 660 mmHg 66%
    21:00 +17°C° 0.2 mm 3 mps 660 mmHg 70%
    22:00 +16°C° 0.1 mm 2 mps 660 mmHg 72%
    23:00 +16°C° 0.1 mm 2 mps 660 mmHg 73%

    Tomorrow, 19 September, Wednesday

    Time Temperature Precipitation Wind Pressure Humidity
    00:00 +15°C° 0.1 mm 2 mps 660 mmHg 75%
    01:00 +15°C° 0.1 mm 2 mps 660 mmHg 76%
    02:00 +14°C° 0.1 mm 2 mps 660 mmHg 77%
    03:00 +14°C° 0.1 mm 2 mps 660 mmHg 79%
    04:00 +14°C° 0.1 mm 2 mps 660 mmHg 80%
    05:00 +14°C° 0.1 mm 2 mps 660 mmHg 81%
    06:00 +13°C° 0.1 mm 2 mps 660 mmHg 82%
    07:00 +15°C° 0.1 mm 1 mps 661 mmHg 73%
    08:00 +18°C° 0.1 mm 1 mps 661 mmHg 65%
    09:00 +20°C° 0.1 mm 1 mps 662 mmHg 57%
    10:00 +21°C° 0.1 mm 1 mps 661 mmHg 52%
    11:00 +23°C° 0.1 mm 1 mps 661 mmHg 48%
    12:00 +24°C° 0.1 mm 1 mps 661 mmHg 43%
    13:00 +24°C° 0.1 mm 2 mps 661 mmHg 42%
    14:00 +24°C° 0.1 mm 2 mps 661 mmHg 41%
    15:00 +25°C° 0.1 mm 2 mps 661 mmHg 40%
    16:00 +23°C° 0.1 mm 2 mps 661 mmHg 46%
    17:00 +21°C° 0.1 mm 2 mps 660 mmHg 52%
    18:00 +20°C° 0.1 mm 2 mps 660 mmHg 58%
    19:00 +19°C° 0.1 mm 2 mps 660 mmHg 63%
    20:00 +18°C° 0.1 mm 2 mps 660 mmHg 69%
    21:00 +17°C° 0.1 mm 3 mps 661 mmHg 74%
    22:00 +16°C° 0 mm 2 mps 661 mmHg 75%
    23:00 +15°C° 0 mm 2 mps 661 mmHg 77%

    Day after tomorrow, 20 September, Thursday

    Time Temperature Precipitation Wind Pressure Humidity
    00:00 +15°C° 0 mm 2 mps 660 mmHg 78%
    01:00 +14°C° 0 mm 2 mps 660 mmHg 78%
    02:00 +14°C° 0 mm 2 mps 660 mmHg 79%
    03:00 +13°C° 0 mm 2 mps 660 mmHg 80%
    04:00 +13°C° 0 mm 2 mps 660 mmHg 81%
    05:00 +13°C° 0 mm 2 mps 660 mmHg 82%
    06:00 +12°C° 0 mm 2 mps 660 mmHg 83%
    07:00 +15°C° 0 mm 1 mps 661 mmHg 73%
    08:00 +18°C° 0 mm 1 mps 661 mmHg 63%
    09:00 +20°C° 0 mm 1 mps 662 mmHg 54%
    10:00 +21°C° 0 mm 1 mps 662 mmHg 49%
    11:00 +23°C° 0 mm 2 mps 662 mmHg 44%
    12:00 +24°C° 0 mm 2 mps 662 mmHg 40%
    13:00 +24°C° 0 mm 2 mps 662 mmHg 39%
    14:00 +25°C° 0 mm 2 mps 661 mmHg 38%
    15:00 +25°C° 0 mm 2 mps 661 mmHg 37%
    16:00 +23°C° 0 mm 2 mps 661 mmHg 44%
    17:00 +21°C° 0 mm 2 mps 660 mmHg 50%
    18:00 +19°C° 0 mm 2 mps 660 mmHg 56%
    19:00 +18°C° 0 mm 2 mps 660 mmHg 61%
    20:00 +18°C° 0 mm 2 mps 661 mmHg 67%
    21:00 +17°C° 0 mm 2 mps 661 mmHg 73%
    22:00 +16°C° 0 mm 2 mps 661 mmHg 75%
    23:00 +16°C° 0 mm 2 mps 661 mmHg 77%

    21 September, Friday

    Time Temperature Precipitation Wind Pressure Humidity
    00:00 +15°C° 0 mm 2 mps 661 mmHg 79%
    01:00 +15°C° 0 mm 2 mps 660 mmHg 80%
    02:00 +15°C° 0 mm 2 mps 660 mmHg 81%
    03:00 +15°C° 0 mm 2 mps 660 mmHg 82%
    04:00 +14°C° 0 mm 1 mps 660 mmHg 82%
    05:00 +14°C° 0 mm 1 mps 660 mmHg 83%
    06:00 +14°C° 0 mm 1 mps 660 mmHg 84%
    07:00 +16°C° 0 mm 1 mps 661 mmHg 74%
    08:00 +19°C° 0 mm 1 mps 661 mmHg 63%
    09:00 +21°C° 0 mm 1 mps 662 mmHg 53%
    10:00 +23°C° 0 mm 2 mps 662 mmHg 48%
    11:00 +24°C° 0 mm 2 mps 662 mmHg 43%
    12:00 +25°C° 0 mm 2 mps 661 mmHg 38%
    13:00 +26°C° 0 mm 2 mps 661 mmHg 37%
    14:00 +26°C° 0 mm 2 mps 661 mmHg 35%
    15:00 +26°C° 0 mm 2 mps 661 mmHg 34%
    16:00 +25°C° 0.1 mm 2 mps 660 mmHg 40%
    17:00 +23°C° 0.1 mm 1 mps 660 mmHg 46%
    18:00 +21°C° 0.1 mm 1 mps 660 mmHg 52%
    19:00 +20°C° 0.3 mm 1 mps 660 mmHg 56%
    20:00 +20°C° 0.3 mm 1 mps 660 mmHg 60%
    21:00 +18°C° 0.3 mm 2 mps 661 mmHg 64%
    22:00 +17°C° 0.1 mm 2 mps 661 mmHg 66%
    23:00 +17°C° 0.1 mm 2 mps 660 mmHg 68%

    22 September, Saturday

    Time Temperature Precipitation Wind Pressure Humidity
    00:00 +17°C° 0.1 mm 2 mps 660 mmHg 71%
    01:00 +16°C° 0 mm 2 mps 660 mmHg 72%
    02:00 +16°C° 0 mm 1 mps 660 mmHg 73%
    03:00 +16°C° 0 mm 1 mps 660 mmHg 74%
    04:00 +15°C° 0 mm 1 mps 660 mmHg 74%
    05:00 +15°C° 0 mm 1 mps 660 mmHg 74%
    06:00 +15°C° 0 mm 1 mps 660 mmHg 74%
    07:00 +18°C° 0 mm 1 mps 661 mmHg 63%
    08:00 +20°C° 0 mm 2 mps 661 mmHg 52%
    09:00 +23°C° 0 mm 2 mps 662 mmHg 41%
    10:00 +25°C° 0 mm 2 mps 662 mmHg 37%
    11:00 +26°C° 0 mm 2 mps 661 mmHg 34%
    12:00 +27°C° 0 mm 3 mps 661 mmHg 30%
    13:00 +27°C° 0 mm 3 mps 661 mmHg 30%
    14:00 +28°C° 0 mm 3 mps 661 mmHg 29%
    15:00 +28°C° 0 mm 3 mps 660 mmHg 29%
    16:00 +26°C° 0.1 mm 2 mps 660 mmHg 35%
    17:00 +24°C° 0.1 mm 2 mps 659 mmHg 40%
    18:00 +21°C° 0.1 mm 2 mps 659 mmHg 46%
    19:00 +20°C° 0.1 mm 2 mps 659 mmHg 51%
    20:00 +19°C° 0.1 mm 2 mps 659 mmHg 55%
    21:00 +19°C° 0.1 mm 2 mps 660 mmHg 60%
    22:00 +18°C° 0 mm 2 mps 660 mmHg 63%
    23:00 +18°C° 0 mm 2 mps 660 mmHg 67%

    23 September, Sunday

    Time Temperature Precipitation Wind Pressure Humidity
    00:00 +17°C° 0 mm 2 mps 660 mmHg 70%
    01:00 +17°C° 0 mm 2 mps 659 mmHg 71%
    02:00 +17°C° 0 mm 2 mps 659 mmHg 73%
    03:00 +16°C° 0 mm 2 mps 659 mmHg 75%
    04:00 +16°C° 0 mm 2 mps 659 mmHg 76%
    05:00 +16°C° 0 mm 2 mps 659 mmHg 76%
    06:00 +16°C° 0 mm 2 mps 659 mmHg 77%
    07:00 +18°C° 0 mm 2 mps 659 mmHg 66%
    08:00 +21°C° 0 mm 1 mps 660 mmHg 56%
    09:00 +23°C° 0 mm 1 mps 660 mmHg 45%
    10:00 +24°C° 0 mm 2 mps 660 mmHg 40%
    11:00 +26°C° 0 mm 2 mps 660 mmHg 36%
    12:00 +27°C° 0 mm 2 mps 660 mmHg 31%
    13:00 +27°C° 0 mm 2 mps 659 mmHg 30%
    14:00 +27°C° 0 mm 2 mps 659 mmHg 28%
    15:00 +28°C° 0 mm 2 mps 659 mmHg 27%
    16:00 +26°C° 0.1 mm 2 mps 658 mmHg 33%
    17:00 +24°C° 0.1 mm 2 mps 658 mmHg 39%
    18:00 +21°C° 0.1 mm 2 mps 658 mmHg 44%
    19:00 +20°C° 0.3 mm 2 mps 658 mmHg 50%
    20:00 +19°C° 0.3 mm 2 mps 658 mmHg 55%
    21:00 +19°C° 0.3 mm 2 mps 658 mmHg 60%
    22:00 +18°C° 0.1 mm 2 mps 658 mmHg 63%
    23:00 +17°C° 0.1 mm 2 mps 658 mmHg 65%
    Show more